Zurück zum Katalog

SCOUT G-1 R/B

AktivPO
NORAD 18363·ROCKET BODY·🇺🇸 United States

Gestartet Sep 16, 1987 von Vandenberg Space Force Base

Loading…

Nächste Überflüge (nächste 24 Stunden)

TLE

AktuellSource: Space-Track

Epoche: Sep 14, 2026, 01:29 UTC

1 18363U 87080C   26257.06230012  .00000048  00000-0  66699-4 0  9992
2 18363  90.3625  89.6099 0103441 195.7907 327.5579 13.44184166911782

Verfolge SCOUT G-1 R/B in Echtzeit mit AllMySat

Download on the App Store